Location: Grayslake Fire Protection District Station 1
(42.3456°N, 88.0407°W)
Time: 04:57:35
(UTC+00:00)

Daily predictions for brighter satellites

Satellite Brightness Start Highest point End
(mag) Time Altitude Azimuth Time Altitude Azimuth Time Altitude Azimuth
Okean O Rocket 3.8 00:03:20 10° SSW 00:07:08 29° W 00:10:56 10° NW
Cosmos 2219 3.3 00:05:50 10° NNW 00:11:31 55° ENE 00:17:08 10° SE
SeaSat 1 3.5 00:11:24 23° ENE 00:12:45 26° NE 00:16:46 10° N
YAOGAN 1 2.6 00:11:55 10° SSE 00:16:07 52° ENE 00:20:20 10° N
Aureole 3 2.6 00:13:11 10° S 00:16:32 87° W 00:19:34 10° N
USA 306 4.4 00:15:04 10° NW 00:18:28 22° NNE 00:19:37 20° NE
S3M 4.1 00:15:44 10° SSE 00:21:32 48° E 00:27:24 10° NNE
SL-4 R/B 3.6 00:20:19 10° NW 00:22:59 19° N 00:24:00 17° NNE
Cosmos 1892 2.8 00:19:31 10° N 00:23:19 51° E 00:26:13 16° SSE
Cosmos 968 Rocket 3.7 00:20:31 10° N 00:25:34 47° ENE 00:28:17 25° SE
CZ-2C R/B 3.2 00:19:51 10° SSE 00:25:37 67° ENE 00:31:16 10° N
Cosmos 1315 Rocket 4.2 00:22:46 10° SSE 00:24:27 22° SE 00:24:27 22° SE
Cosmos 1346 Rocket 3.2 00:24:46 10° N 00:28:23 40° ENE 00:28:23 40° ENE
Timation 2 Rocket 4.3 00:22:05 10° NNW 00:28:43 78° WSW 00:35:32 10° SSE
CZ-2D R/B 3.5 00:25:10 10° S 00:28:57 67° W 00:32:45 10° NNW
Cosmos 1302 Rocket 4.2 00:25:29 10° SSW 00:30:43 73° WNW 00:36:02 10° NNE
Cosmos 2369 4.2 00:26:08 10° S 00:31:16 36° ESE 00:32:24 33° E
Atlas Centaur 2 4.2 00:24:25 10° SW 00:31:27 29° SSE 00:35:21 21° SE
CRYOSAT 2 4.4 00:27:36 10° NNE 00:32:21 50° E 00:37:04 10° SSE
NOAA 15 4.5 00:27:31 10° SSE 00:32:49 81° ENE 00:38:09 10° NNW
Cosmos 1417 Rocket 4.4 00:27:05 10° S 00:33:18 76° E 00:39:36 10° N
Meteor 2-10 Rocket 3.5 00:29:20 10° S 00:34:38 61° E 00:39:45 10° NNE
Okean-O 2.8 00:32:54 10° S 00:37:19 72° WSW 00:41:46 10° NNW
Cosmos 1486 Rocket 4.0 00:32:39 10° NNW 00:37:59 64° ENE 00:41:02 25° SE
ARGOS 3.4 00:36:35 33° ESE 00:38:29 45° ENE 00:43:38 10° N
NOSS 3-3 (A) 4.0 00:33:51 10° SSW 00:39:20 51° ESE 00:41:50 32° ENE
NOSS 3-3 (C) 4.0 00:33:56 10° SSW 00:39:28 51° ESE 00:41:58 33° ENE
Meteor 2-1 Rocket 4.1 00:37:25 10° S 00:42:51 64° E 00:48:18 10° NNE
USA 215 4.1 00:42:31 27° NE 00:44:45 33° NNE 00:50:28 10° NW
Cosmos 1408 3.9 00:41:24 10° N 00:43:15 27° N 00:43:15 27° N
Cosmos 1656 3.7 00:41:35 10° SSW 00:47:08 78° WNW 00:52:48 10° NNE
Cosmos 1503 Rocket 4.3 00:42:23 10° N 00:47:16 44° ENE 00:47:16 44° ENE
MOS 1 Rocket 3.2 00:42:50 10° NNE 00:47:30 76° ESE 00:52:27 10° S
Cosmos 2227 Rocket 2.1 00:42:15 10° NNW 00:47:56 81° ENE 00:51:12 26° SSE
FALCON 9 DEB 4.3 00:45:17 10° W 00:48:16 34° NNW 00:48:22 34° NNW
SJ-11-01 4.1 00:46:21 24° SSE 00:49:09 77° ENE 00:53:50 10° N
DMSP B5D1-3 4.4 00:46:01 10° NNE 00:51:12 88° ESE 00:56:21 10° SSW
Cosmos 1553 Rocket 4.3 00:45:43 10° SSW 00:52:04 70° W 00:58:22 10° N
ATLAS 2AS CENTAUR R/B 4.0 00:47:05 10° NNW 00:53:08 25° NNE 00:54:14 24° NE
CSL-04 Rocket 3.6 00:47:56 10° SSE 00:53:29 83° ENE 00:59:03 10° NNW
SL-08 ROCKET BODY 4.4 00:47:30 10° N 00:53:38 85° W 00:59:48 10° S
Cosmos 2263 Rocket 4.0 00:52:42 10° N 00:54:45 16° NNE 00:54:45 16° NNE
Cosmos 1354 Rocket 4.4 00:52:45 10° N 00:57:06 44° NE 00:57:06 44° NE
GEOS 3 Rocket 3.5 00:57:17 47° SE 00:58:54 84° NE 01:04:19 10° NW
BREEZE-M R/B 4.4 00:56:00 10° WNW 01:00:25 47° NNE 01:02:10 40° ENE
USA 307 4.2 00:57:11 10° NW 01:00:12 29° N 01:00:12 29° N
Lacrosse 5 3.9 00:59:56 10° NNW 01:02:54 15° N 01:03:38 15° NNE
Cosmos 1340 4.4 00:59:39 10° NNW 01:03:03 32° W 01:06:25 10° SSW
Cosmos 1697 Rocket 2.5 00:58:45 10° SSW 01:04:20 79° ESE 01:06:00 47° NE
USA 308 4.3 01:01:59 10° NW 01:04:49 29° N 01:04:49 29° N
H-2A R/B 2.3 01:03:48 10° S 01:09:10 74° WSW 01:14:39 10° NNW
Cosmos 1992 Rocket 4.0 01:06:44 10° SSW 01:11:56 78° WNW 01:13:54 39° N
Cosmos 220 Rocket 4.4 01:11:11 10° SSW 01:15:19 61° W 01:15:19 61° W
Cosmos 1745 Rocket 4.4 01:13:44 10° NNW 01:19:56 62° W 01:26:09 10° S
CZ-4C R/B 4.2 01:20:31 10° NNW 01:25:16 22° NNE 01:25:16 22° NNE
Cosmos 1980 Rocket 3.9 01:20:39 10° S 01:22:19 20° S 01:22:19 20° S
CZ-4 R/B 3.9 01:23:25 10° SW 01:26:16 19° W 01:29:07 10° NW
Cosmos 2058 4.2 01:23:08 10° NNW 01:26:52 38° W 01:26:52 38° W
Cosmos 2297 Rocket 3.4 01:22:42 10° NW 01:27:56 39° WSW 01:32:04 15° SSW
Milstar 3 4.0 01:29:09 10° WSW 01:34:36 26° S 01:34:44 26° S
Cosmos 2360 4.5 01:30:40 10° SSW 01:35:33 64° SW 01:35:33 64° SW
DEBRIS 4.4 01:28:47 10° WSW 01:45:07 62° NNW 01:45:44 59° N
Cosmos 1709 Rocket 4.3 01:43:40 10° NNW 01:49:59 64° W 01:50:36 61° WSW
SeaSat 1 3.6 01:51:12 40° WNW 01:51:12 40° WNW 01:54:47 10° NW
Atlas Centaur 2 4.2 02:12:56 10° WSW 02:17:56 29° SSW 02:17:56 29° SSW
USA 215 4.3 02:29:52 39° NW 02:29:52 39° NW 02:33:45 10° NW
ATLAS 2AS CENTAUR R/B 4.1 02:37:50 10° NW 02:41:40 33° NNW 02:41:40 33° NNW
CENTAUR R/B 3.5 08:57:17 42° E 08:57:17 42° E 09:02:20 10° NE
CZ-2C R/B 4.3 09:01:35 10° NE 09:05:24 26° E 09:05:24 26° E
Lacrosse 5 rocket 4.2 09:22:55 13° E 09:22:55 13° E 09:23:39 10° ENE
Cosmos 2344 3.4 09:27:00 73° NW 09:27:00 73° NW 09:34:41 10° NE
USA 238 DEB 3.8 09:29:27 62° N 09:29:27 62° N 09:35:18 10° NNE
USA 238 3.8 09:29:31 63° N 09:29:31 63° N 09:35:25 10° NNE
NOSS 3-2 (A) 4.0 09:34:08 46° N 09:34:08 46° N 09:39:00 10° NNE
Cosmos 1656 4.4 09:36:09 32° N 09:38:36 53° ENE 09:44:09 10° SE
CZ-4B R/B 4.4 09:37:54 10° ESE 09:40:04 16° ENE 09:42:14 10° NNE
ATLAS 3B R/B 4.1 09:36:41 10° S 09:42:24 33° ESE 09:48:09 10° NE
USA 234 4.3 09:44:23 10° NE 09:49:49 29° NNW 09:50:35 28° NNW
Cosmos 2279 Rocket 3.9 09:43:46 10° N 09:50:01 87° E 09:56:12 10° S
COSMOS 2406 3.6 09:48:10 39° S 09:50:05 60° ESE 09:55:40 10° NNE
Cosmos 1697 Rocket 3.9 09:51:51 10° NNW 09:57:12 41° ENE 10:02:31 10° SE
ADEOS Rocket 2.6 09:54:44 10° SSE 10:00:14 89° W 10:05:49 10° NNW
NOSS 3-3 (A) 4.5 10:00:01 42° WNW 10:02:49 66° WSW 10:11:11 10° SSE
NOSS 3-3 (C) 4.5 10:00:14 43° WNW 10:02:54 65° WSW 10:11:10 10° SSE
BREEZE-M DEB (TANK) 4.0 10:04:38 21° ESE 10:04:38 21° ESE 10:05:26 10° ESE
ERS-2 3.2 10:01:30 10° SE 10:04:59 44° ENE 10:05:48 37° NE
PSLV R/B 4.5 10:01:25 10° N 10:04:08 39° N 10:04:08 39° N
Cosmos 44 Rocket 3.5 10:04:23 47° NNW 10:05:49 75° NE 10:11:01 10° SE
Cosmos 1908 4.2 10:08:35 41° SSE 10:08:35 41° SSE 10:11:16 10° SSE
CBERS 1 LM4 rocket 4.4 10:06:18 10° NNE 10:11:14 81° ESE 10:14:27 21° S
FENGYUN 3A 4.4 10:06:58 10° NNE 10:12:17 52° E 10:17:34 10° S
Cosmos 1461 4.2 10:10:10 21° S 10:12:45 44° ESE 10:17:10 10° NE
ISS -3.0 10:19:03 53° E 10:19:03 53° E 10:21:47 10° ENE
Cosmos 1980 Rocket 3.8 10:14:00 10° N 10:19:02 33° NE 10:24:04 10° ESE
DELTA 2 R/B (1) 4.1 10:24:50 38° SW 10:25:47 41° SSW 10:31:01 10° SE
Cosmos 1300 4.3 10:23:38 10° N 10:27:10 35° ENE 10:30:41 10° SE
Lacrosse 4 Rocket 2.1 10:33:26 35° NNW 10:33:26 35° NNW 10:36:30 10° NNE
NOSS 3-2 (C) 3.8 10:31:39 36° WNW 10:32:55 40° NW 10:39:03 10° NNE
ALOS 2.3 10:28:36 10° NNE 10:33:18 79° ESE 10:37:58 10° S
Cosmos 1674 4.4 10:36:02 20° NNW 10:36:02 20° NNW 10:37:24 10° N
Cosmos 1484 Rocket 2.6 10:35:34 10° N 10:39:27 86° WNW 10:43:14 10° SSW
Cosmos 1626 1.9 10:38:08 10° S 10:41:49 81° W 10:45:32 10° N
CZ-2C R/B 3.0 10:39:30 10° N 10:44:01 35° WNW 10:44:45 33° W
Cosmos 2278 4.4 10:40:30 10° NNW 10:46:05 55° ENE 10:51:36 10° SE
CENTAUR R/B 3.2 10:44:29 28° W 10:46:45 37° NW 10:53:17 10° NNE
Cosmos 2228 3.0 10:44:07 10° N 10:48:31 89° ESE 10:52:53 10° S
CZ-4B R/B 3.9 10:45:28 10° NNE 10:49:23 49° E 10:53:28 10° S
Cosmos 1606 Rocket 3.5 10:47:08 10° N 10:51:38 89° W 10:56:06 10° S
ADEOS 3.5 10:47:08 10° N 10:52:20 66° WNW 10:57:30 10° SSW
Cosmos 1092 Rocket 4.0 10:47:45 10° S 10:53:55 88° E 11:00:10 10° N
Cosmos 1833 Rocket 2.8 10:50:45 13° SW 10:55:43 53° WNW 11:01:17 10° NNE
COSMO-SKYMED 1 2.9 10:52:52 10° SSE 10:57:10 67° ENE 11:01:29 10° N
Cosmos 1302 Rocket 4.5 10:53:37 13° NW 10:57:50 37° WSW 11:02:38 10° SSW
Elektron 1 3.7 10:56:36 18° SW 10:59:00 84° NW 11:01:50 10° NE
Lacrosse 5 rocket 1.4 10:58:36 32° W 10:59:46 44° NW 11:03:25 10° NE
Nadezhda 4 Rocket 4.1 10:54:12 10° SSW 11:00:06 51° WNW 11:06:05 10° N
CZ-3 R/B 3.8 10:42:22 14° WSW 11:01:00 41° SSW 11:07:59 10° ESE
Geosat 4.3 10:56:36 10° S 11:01:24 45° WSW 11:06:12 10° NW
deb Kosmos-1763 4.1 10:59:06 15° SW 11:01:51 51° WNW 11:05:22 10° N
Meteor 1-24 Rocket 3.7 10:57:09 10° SSW 11:02:44 81° W 11:08:34 10° N
Meteor 1-31 Rocket 2.8 10:59:39 10° N 11:03:33 61° WNW 11:07:25 10° SSW
Meteor PRIRODA 4.0 11:02:35 10° NNE 11:06:13 65° ESE 11:09:51 10° S
Meteor 2-13 Rocket 4.4 11:01:12 10° SSW 11:07:18 65° W 11:13:25 10° N
Cosmos 2369 3.7 11:03:39 10° NNW 11:09:16 64° WSW 11:14:49 10° S
CZ-4B R/B 2.2 11:08:58 10° SSW 11:12:04 30° W 11:15:10 10° NW
METEOR-M 4.2 11:09:13 10° N 11:14:26 55° WNW 11:19:37 10° SSW
Cosmos 2082 Rocket 2.1 11:09:17 10° SW 11:14:50 66° WNW 11:20:27 10° NNE
Okean 1-7 Rocket 3.7 11:11:24 10° S 11:15:57 83° E 11:20:29 10° N
CZ-4B R/B 4.3 11:13:31 10° N 11:17:32 43° WNW 11:21:20 10° SW
ASTRO F (AKARI) 4.4 11:15:31 10° NNE 11:19:04 87° E 11:22:26 10° SSW
Cosmos 220 Rocket 4.3 11:15:46 10° NNW 11:20:04 48° WSW 11:24:18 10° S
deb Chang Zheng 4 4.1 11:17:03 10° N 11:20:56 35° WNW 11:24:48 10° SW
Intercosmos 24 4.4 11:18:39 10° NNW 11:22:01 30° W 11:25:10 10° SSW
Cosmos 2058 Rocket 3.1 11:17:38 10° N 11:22:10 86° W 11:26:37 10° S
SL-16 R/B 3.9 11:19:37 10° N 11:24:44 33° NE 11:29:50 10° ESE
Meteor 2-5 Rocket 4.2 11:22:07 10° SW 11:27:24 39° WNW 11:32:49 10° N
Cosmos 1892 Rocket 3.8 11:27:33 10° SSW 11:31:42 45° WNW 11:35:56 10° N
Cosmos 1400 Rocket 3.0 11:28:05 10° NNW 11:31:53 47° W 11:35:37 10° S
ATLAS 3B R/B 2.8 11:26:25 10° SW 11:32:48 51° NW 11:39:18 10° NNE
Cosmos 2084 3.4 11:29:13 10° SW 11:33:32 76° NW 11:37:56 10° NNE
COSMOS 2406 4.4 11:30:26 10° WSW 11:34:49 23° NW 11:39:14 10° N
YAOGAN 6 4.3 11:32:05 10° NNE 11:35:34 39° E 11:39:00 10° SSE
Cosmos 1992 Rocket 4.4 11:33:36 10° NW 11:38:27 40° WSW 11:43:16 10° S
H-2A R/B 3.2 11:34:06 10° NNE 11:38:27 62° E 11:42:39 10° S
ERS-2 4.0 11:37:24 10° WSW 11:38:45 12° W 11:40:07 10° WNW
Cosmos 1697 Rocket 3.5 11:36:08 10° NW 11:40:58 30° WSW 11:45:46 10° SSW
Meteor 2-8 Rocket 4.5 11:38:03 10° NNW 11:44:11 69° W 11:50:16 10° S
SKYMED 2 4.2 11:41:19 10° SSW 11:45:18 36° W 11:49:19 10° NNW
Abrixas rocket 2.1 11:42:50 10° WNW 11:45:40 63° NNE 11:48:30 10° ESE
ADEOS Rocket 4.5 11:45:55 10° W 11:46:39 10° W 11:47:23 10° W
Cosmos 2292 Rocket 3.6 11:44:18 10° S 11:47:14 55° E 11:50:40 10° NNE
Cosmos 1553 Rocket 4.0 11:41:08 10° N 11:47:17 82° W 11:53:20 10° S
Cosmos 2360 Rocket 4.2 11:46:53 10° N 11:51:30 25° NE 11:56:05 10° ESE
